This is the latest recevied weather packets stored in our database for station/object 9W2CHF-3. If no packets are shown the sender has not sent any weather packets the latest 10 day(s).
| Time | Temp. | Humidity | Pressure | Rain* | Wind** | Luminosity | Snow |
|---|---|---|---|---|---|---|---|
| 1777160799 | 28.89° C | 100% | 1010.6 hPa | - | - | - | - |
| 1777159599 | 28.89° C | 100% | 1010.5 hPa | - | - | - | - |
| 1777158399 | 29.44° C | 100% | 1010.3 hPa | - | - | - | - |
| 1777157199 | 28.33° C | 100% | 1009.9 hPa | - | - | - | - |
| 1777155998 | 29.44° C | 100% | 1009.9 hPa | - | - | - | - |
| 1777154798 | 28.89° C | 100% | 1009.9 hPa | - | - | - | - |
| 1777153597 | 29.44° C | 100% | 1009.6 hPa | - | - | - | - |
| 1777152396 | 29.44° C | 100% | 1009.5 hPa | - | - | - | - |
| 1777151196 | 29.44° C | 100% | 1009.2 hPa | - | - | - | - |
| 1777149996 | 30° C | 100% | 1009.1 hPa | - | - | - | - |
| 1777148796 | 28.89° C | 100% | 1009.1 hPa | - | - | - | - |
| 1777147596 | 30° C | 98% | 1009 hPa | - | - | - | - |
| 1777146396 | 30° C | 100% | 1009.3 hPa | - | - | - | - |
| 1777145196 | 29.44° C | 100% | 1009.7 hPa | - | - | - | - |
| 1777143996 | 30° C | 100% | 1009.8 hPa | - | - | - | - |
| 1777142796 | 29.44° C | 100% | 1009.7 hPa | - | - | - | - |
| 1777141597 | 30° C | 99% | 1009.9 hPa | - | - | - | - |
| 1777140397 | 29.44° C | 100% | 1010.2 hPa | - | - | - | - |
| 1777139197 | 29.44° C | 98% | 1010.3 hPa | - | - | - | - |
| 1777137997 | 28.89° C | 100% | 1010.5 hPa | - | - | - | - |
| 1777136797 | 30.56° C | 92% | 1010.8 hPa | - | - | - | - |
| 1777135597 | 30° C | 94% | 1011.1 hPa | - | - | - | - |
| 1777134397 | 30° C | 97% | 1011.5 hPa | - | - | - | - |
| 1777133197 | 30° C | 96% | 1011.9 hPa | - | - | - | - |
| 1777131997 | 30.56° C | 96% | 1012 hPa | - | - | - | - |
* Rain since midnight (hover to see other rain measurements)
** Current wind speed in m/s (hover to see current wind gust speed)